STARLINK-36712

Last updated on Tue Mar 10 2026 00:02:05 GMT+0000 (Coordinated Universal Time)

1 67700U 26025H 26068.26805966 .00162619 00000+0 10694-2 0 9995 2 67700 97.2825 179.8245 0001352 16.6655 343.4654 15.75214501 5871
UTC large
Height (km)
Speed (km/s)
/
Latitude / Longitude
Inclination (degrees)
Orbital Period (minutes)
Azimuth
Elevation
Range (km)
Doppler Factor

Next 0 passes for location: London (51.5072 / 0.1276)

Sorry there are no passes over London.